Shenandoah, IA

11:56 AM CDT on April 23, 2017 (GMT -0500)
Shenandoah Municipal

Weather History for KSDA - November, 2014

Change the Weather History Date:

Tuesday, November 18, 2014

  Actual Average Record
Temperature  
Mean Temperature 18 °F -  
Max Temperature 30 °F 51 °F 77 °F (1999)
Min Temperature 5 °F 31 °F 5 °F (2014)
Degree Days  
Heating Degree Days 48    
Moisture  
Dew Point 10 °F    
Average Humidity 64    
Maximum Humidity 79    
Minimum Humidity 55    
Precipitation  
Precipitation 0.00 in - - ()
Sea Level Pressure  
Sea Level Pressure 30.17 in    
Wind  
Wind Speed 9 mph (SSW)    
Max Wind Speed 16 mph    
Max Gust Speed 17 mph    
Visibility 10 miles    
Events      
Averages and records for this station are not official NWS values.
T = Trace of Precipitation, MM = Missing Value Source: NWS Daily Summary

Daily Weather History Graph

Daily Weather History Graph

Search for Another Location

Airport or City:

Trip Planner

Search our weather history database for the weather conditions in past years. The results will help you decide how hot, cold, wet, or windy it might be!

Date:

Astronomy

Nov. 18, 2014 Rise Set
Actual Time 7:12 AM CST 5:01 PM CST
Civil Twilight 6:42 AM CST 5:30 PM CST
Nautical Twilight 6:09 AM CST 6:04 PM CST
Astronomical Twilight 5:36 AM CST 6:36 PM CST
Moon 3:09 AM CST (11/18) 2:57 PM CST (11/18)
Length of Visible Light 10h 48m
Length of Day
9h 49m
Waning Crescent, 15% of the Moon is Illuminated
Nov 18
Waning Crescent
Nov 22
New
Nov 29
First Quarter
Dec 6
Full
Dec 14
Last Quarter

Hourly Weather History & Observations

Time (CST) Temp. Windchill Dew Point Humidity Pressure Visibility Wind Dir Wind Speed Gust Speed Precip Events Conditions
12:15 AM 6.8 °F -3.5 °F 1.4 °F 79% 30.27 in 10.0 mi WSW 5.8 mph - N/A   Clear
12:40 AM 6.8 °F -2.0 °F -0.4 °F 72% 30.26 in 10.0 mi WSW 4.6 mph - N/A   Clear
12:55 AM 6.8 °F -4.8 °F -0.4 °F 72% 30.26 in 10.0 mi WSW 6.9 mph - N/A   Clear
1:15 AM 5.0 °F -5.6 °F -0.4 °F 78% 30.26 in 10.0 mi WSW 5.8 mph - N/A   Clear
1:35 AM 6.8 °F -3.5 °F -0.4 °F 72% 30.26 in 10.0 mi WSW 5.8 mph - N/A   Clear
1:55 AM 6.8 °F -3.5 °F -0.4 °F 72% 30.26 in 10.0 mi WSW 5.8 mph - N/A   Clear
9:40 AM 15.8 °F 3.4 °F 8.6 °F 73% 30.26 in 10.0 mi SW 10.4 mph - N/A   Clear
9:55 AM 17.6 °F 5.7 °F 8.6 °F 68% 30.25 in 10.0 mi SW 10.4 mph - N/A   Clear
10:15 AM 17.6 °F 6.4 °F 8.6 °F 68% 30.24 in 10.0 mi SW 9.2 mph - N/A   Clear
10:35 AM 21.2 °F 10.9 °F 8.6 °F 58% 30.24 in 10.0 mi SW 9.2 mph - N/A   Clear
10:55 AM 23.0 °F 12.4 °F 10.4 °F 59% 30.24 in 10.0 mi WSW 10.4 mph 17.3 mph N/A   Clear
11:15 AM 23.0 °F 12.4 °F 10.4 °F 59% 30.23 in 10.0 mi SW 10.4 mph - N/A   Clear
11:35 AM 23.0 °F 12.4 °F 10.4 °F 59% 30.21 in 10.0 mi SSW 10.4 mph - N/A   Clear
12:55 PM 26.6 °F 15.2 °F 12.2 °F 55% 30.16 in 10.0 mi SSW 13.8 mph - N/A   Clear
1:15 PM 26.6 °F 14.3 °F 14.0 °F 59% 30.14 in 10.0 mi SSW 16.1 mph - N/A   Clear
1:35 PM 26.6 °F 15.7 °F 14.0 °F 59% 30.13 in 10.0 mi South 12.7 mph - N/A   Clear
1:55 PM 28.4 °F 17.0 °F 14.0 °F 55% 30.12 in 10.0 mi SSW 15.0 mph - N/A   Clear
2:15 PM 28.4 °F 16.6 °F 15.8 °F 59% 30.10 in 10.0 mi SSW 16.1 mph - N/A   Clear
2:35 PM 28.4 °F 17.0 °F 15.8 °F 59% 30.09 in 10.0 mi SSW 15.0 mph - N/A   Clear
2:50 PM 28.4 °F 18.0 °F 15.8 °F 59% 30.08 in 10.0 mi SSW 12.7 mph - N/A   Clear
3:35 PM 30.2 °F 20.2 °F 15.8 °F 55% 30.07 in - SSW 12.7 mph - N/A   Clear
3:55 PM 30.2 °F 21.3 °F 15.8 °F 55% 30.05 in 10.0 mi South 10.4 mph - N/A   Clear
4:15 PM 30.2 °F 22.6 °F 15.8 °F 55% 30.04 in 10.0 mi South 8.1 mph - N/A   Clear
4:35 PM 28.4 °F 20.4 °F 17.6 °F 64% 30.04 in 10.0 mi South 8.1 mph - N/A   Clear
4:55 PM 26.6 °F 18.2 °F 15.8 °F 64% 30.03 in 10.0 mi South 8.1 mph - N/A   Clear
5:15 PM 24.8 °F 15.3 °F 15.8 °F 69% 30.03 in 10.0 mi South 9.2 mph - N/A   Clear